Theta_e
313 312 313 316 319 320 322 324 321 321 321 320 320 318 321 323 322 321 320 320 321 321 320 321 320 322 321 324 345 354 349 354 355 361 362 353 350 350 350 349 344 336 334 336 338 341 343 342 343 344 344 343 340 338 339 337 334 330 328 328 329 333 334 335 336 336 335 332 333 335 337 339 339 340 339 337 336 337 339 339 339 338 337 337 336 336 336 336 335 334 335 335 335 336 335 335 336
312 315 318 321 323 324 327 324 319 319 319 318 319 319 320 322 321 319 318 319 320 320 322 321 320 322 319 328 345 355 352 351 351 355 355 349 349 349 349 347 341 335 334 336 337 341 345 345 344 345 344 342 340 339 339 337 335 330 328 329 330 334 336 336 337 337 336 335 337 338 338 339 338 340 340 337 336 337 338 338 338 338 337 336 336 337 337 337 335 332 332 332 332 333 333 334 335
312 318 323 324 323 324 327 324 321 317 316 317 316 320 321 319 318 318 319 318 320 321 322 320 321 321 323 338 348 357 354 348 349 350 350 350 350 348 348 346 340 336 334 336 336 340 347 347 345 345 344 343 341 340 339 337 335 331 328 330 332 335 337 338 338 338 337 336 338 338 338 339 337 340 340 337 336 338 338 338 338 338 337 337 337 338 338 337 335 333 332 330 329 330 332 334 334
312 318 324 325 323 322 325 325 325 318 315 315 312 318 321 319 318 319 319 319 321 320 321 319 322 329 340 350 349 352 352 348 349 350 351 351 349 348 348 346 341 339 337 337 337 341 347 348 346 345 345 344 342 341 339 337 335 331 329 330 334 336 337 339 339 338 337 336 338 338 339 339 338 339 339 336 335 338 339 338 339 338 338 338 338 339 338 337 336 334 333 331 329 328 331 333 333
312 318 323 324 324 321 324 325 325 320 317 315 311 317 319 319 319 320 321 320 321 319 321 318 319 335 349 351 349 352 351 350 352 351 352 350 349 348 347 346 341 340 341 342 340 342 347 348 346 346 345 345 344 342 339 338 335 332 330 332 335 336 338 339 339 338 336 336 337 338 339 339 339 339 338 335 336 339 339 338 338 338 338 338 338 338 338 337 336 336 334 332 330 326 329 333 331
313 318 321 322 323 321 324 324 322 319 319 320 315 317 319 320 320 320 322 320 321 321 321 320 322 341 353 349 348 351 348 350 353 352 351 349 348 347 347 345 341 342 343 344 342 342 347 347 347 347 347 347 345 343 340 338 336 333 331 333 336 337 338 339 339 336 334 334 335 337 337 337 337 338 337 334 337 339 339 338 337 338 338 338 338 338 338 337 337 337 334 332 330 324 325 331 331
316 319 321 321 321 321 325 324 322 320 320 321 318 318 319 320 321 320 321 320 324 322 320 322 329 348 354 349 350 350 348 351 353 352 350 348 348 347 346 344 343 344 344 344 341 341 346 347 347 348 348 347 346 344 341 339 337 334 332 334 336 337 338 339 338 333 333 334 335 336 335 335 335 336 334 334 338 340 340 338 337 339 340 339 338 338 338 338 337 336 334 332 330 323 320 328 330
318 319 320 321 320 320 323 321 320 320 320 321 319 320 320 319 320 319 320 319 322 321 323 321 331 353 354 350 354 352 351 353 352 352 350 348 347 346 346 344 344 344 344 344 340 342 346 347 347 348 347 346 346 345 343 341 338 336 333 333 335 336 338 338 335 332 334 335 335 335 335 334 334 334 333 335 339 339 340 337 336 339 340 339 338 339 338 338 336 334 332 331 330 322 317 324 328
319 319 320 321 321 319 318 318 318 318 319 319 318 322 322 319 320 320 319 319 321 320 323 319 332 356 355 351 354 352 352 353 352 351 349 348 347 346 345 344 344 344 344 343 339 343 346 346 348 347 347 346 346 345 344 343 341 339 335 333 335 336 337 336 333 333 335 334 334 335 336 336 334 335 335 337 338 339 338 336 337 339 339 339 338 338 337 336 334 332 331 329 327 321 317 322 326
320 319 321 322 323 319 315 315 316 318 319 318 318 320 320 319 320 319 320 319 320 321 323 329 341 354 353 352 354 351 353 353 351 351 349 348 347 345 345 344 344 344 345 343 340 343 345 345 346 346 346 346 345 345 343 343 342 340 335 334 336 336 336 334 334 334 334 333 334 336 339 338 335 335 335 337 338 338 338 336 338 340 339 339 338 337 336 334 333 332 331 328 324 320 320 322 325
321 318 320 321 322 319 316 315 315 318 319 318 318 319 319 319 320 318 319 319 320 323 322 336 349 352 352 354 353 350 352 353 352 351 350 349 347 346 345 344 344 345 345 344 342 344 345 343 345 345 345 345 344 344 343 343 341 338 335 335 336 336 335 334 334 334 333 333 335 338 340 339 337 336 335 336 337 337 337 338 339 340 339 338 337 336 335 333 332 332 330 327 322 321 324 325 328
321 319 319 320 319 318 317 315 314 319 318 317 318 318 320 318 320 319 319 320 321 323 322 335 348 352 353 355 353 350 351 353 353 351 350 349 348 347 344 345 345 345 345 343 343 344 344 344 343 343 344 344 344 344 343 341 339 337 335 335 336 337 336 335 335 332 332 334 337 339 339 339 338 337 336 335 336 336 337 338 339 340 339 336 336 335 334 332 333 332 330 327 322 323 329 330 331
320 320 319 319 319 317 316 314 315 320 318 317 317 318 320 319 319 319 319 320 320 321 333 346 348 353 357 355 353 352 352 353 353 352 350 349 348 347 344 345 345 345 345 342 342 343 343 343 342 342 342 343 343 343 341 340 338 336 335 336 338 338 336 335 335 332 332 336 339 340 339 339 339 338 337 335 335 336 338 339 340 339 338 336 335 334 332 332 333 332 330 328 322 323 331 331 332
319 320 319 320 321 318 317 315 316 316 316 318 318 319 319 319 319 320 320 319 321 320 337 352 348 355 358 355 355 353 353 353 353 353 350 350 348 347 346 346 346 345 343 341 342 343 343 343 342 341 341 342 342 342 341 340 338 337 337 338 340 339 337 336 336 333 333 337 339 339 339 338 338 337 336 336 336 336 339 339 340 339 337 336 335 334 332 332 333 332 330 329 324 322 328 331 332
318 318 319 320 319 317 317 316 316 314 315 320 318 320 320 319 320 320 320 319 321 319 334 347 345 359 361 357 359 353 351 352 353 353 351 350 348 348 347 346 346 344 342 341 342 342 342 342 341 340 340 340 341 341 340 340 339 339 338 339 340 339 337 336 337 335 335 337 339 339 339 338 337 337 337 337 336 337 339 339 339 338 337 337 335 334 332 332 332 333 331 329 326 322 325 331 332
317 317 317 318 316 315 316 316 316 314 316 319 318 320 319 319 320 319 320 320 320 320 335 341 342 356 357 355 356 349 349 352 353 353 352 350 349 348 348 347 346 343 342 342 341 339 339 339 340 339 339 339 340 339 339 340 340 339 339 339 340 338 337 337 338 337 337 337 339 339 338 338 338 338 337 337 336 337 338 338 338 338 337 336 335 334 332 331 332 333 332 329 328 327 328 331 332
316 316 317 317 316 314 316 317 316 316 316 318 318 319 319 318 319 319 320 321 319 326 340 341 341 348 350 352 351 348 350 351 351 352 351 350 350 349 347 346 342 341 341 341 340 337 336 337 338 337 337 338 338 338 338 338 338 339 339 339 338 337 337 338 339 339 339 338 338 339 338 337 338 338 337 336 336 337 338 337 338 337 336 335 335 334 332 332 332 333 332 330 330 331 332 332 332
316 318 317 315 315 315 316 317 317 317 317 318 319 319 319 318 318 319 319 320 318 329 343 342 342 346 348 350 348 349 350 351 352 350 350 348 346 344 342 339 337 339 340 341 341 340 338 338 338 337 338 339 337 337 336 335 337 338 338 338 337 337 338 338 339 340 341 339 338 338 337 336 336 335 334 334 335 337 337 337 338 337 335 335 335 334 332 332 331 332 333 331 330 331 332 331 332
316 318 318 315 315 316 316 317 317 317 317 317 318 318 319 318 318 318 317 320 316 328 345 345 344 348 349 349 347 349 350 349 347 344 343 340 338 337 337 336 336 339 339 340 342 340 337 335 335 335 338 338 335 334 333 333 335 336 337 337 336 337 338 339 340 341 341 339 338 338 338 336 335 333 333 333 334 335 336 337 337 335 334 334 334 334 333 332 331 331 332 332 331 330 331 332 333
316 317 317 315 315 315 316 317 317 317 317 316 317 317 318 318 318 319 317 319 316 327 347 351 350 351 349 349 348 349 347 342 337 336 335 334 335 337 336 337 338 338 338 340 341 338 333 331 333 334 335 335 332 331 332 333 332 334 336 337 337 338 339 339 340 340 340 339 339 338 338 337 335 334 334 334 334 334 335 336 336 334 333 333 333 333 333 332 332 331 331 333 333 332 331 332 333
316 315 315 315 315 316 316 317 317 318 318 317 317 316 317 317 317 319 318 319 317 327 347 353 354 353 350 351 348 345 340 337 335 335 336 335 337 338 337 338 338 337 337 338 340 339 336 334 336 336 338 336 331 330 331 331 331 334 336 336 336 338 339 339 339 340 339 339 338 338 338 338 336 336 337 337 335 333 334 335 335 333 331 331 332 333 333 332 331 331 330 331 334 335 335 334 334
316 315 315 315 315 315 316 318 318 318 318 317 317 316 316 316 317 318 317 319 317 329 347 349 351 354 351 350 345 341 340 342 341 338 337 336 337 338 337 338 338 338 337 337 339 340 338 336 336 337 339 339 334 331 330 329 332 334 335 335 335 338 339 339 339 339 338 337 336 337 338 339 337 337 338 337 335 334 334 335 335 332 329 329 331 332 332 332 331 331 330 330 333 335 336 336 336
315 315 315 315 316 315 316 317 318 318 317 316 316 316 316 316 317 318 317 319 316 331 347 346 347 352 349 346 343 344 348 351 349 341 337 336 338 338 337 338 339 339 338 338 339 341 340 338 337 337 339 339 334 330 329 330 333 334 335 336 336 338 339 338 338 338 337 336 336 337 338 338 338 337 338 336 335 334 334 334 332 329 328 328 330 330 330 330 331 331 330 331 332 333 334 336 335
315 315 315 316 316 316 316 317 317 317 316 316 316 316 316 315 317 317 317 318 316 331 345 344 346 348 345 344 344 347 351 350 345 337 336 337 338 338 337 338 338 338 338 339 340 340 340 340 339 339 339 337 333 330 329 331 334 335 337 338 338 338 339 338 338 337 337 336 337 338 338 338 337 336 337 335 335 335 332 331 330 328 328 329 329 329 328 329 330 330 331 331 332 332 333 335 334
314 314 315 316 316 315 316 317 317 317 317 317 316 316 316 316 316 316 317 318 316 330 344 343 344 346 345 345 345 349 351 345 340 336 337 338 337 337 337 337 338 339 340 340 340 340 340 341 340 340 339 337 333 330 329 332 336 337 339 340 339 339 339 339 338 337 337 335 337 338 338 337 336 336 336 335 335 335 334 332 331 330 331 331 331 332 331 330 330 331 332 331 331 331 332 334 335
315 315 315 315 315 316 316 317 318 317 317 317 316 315 316 317 316 315 316 318 315 325 341 342 343 347 347 347 348 352 351 344 340 336 336 336 336 338 338 338 339 341 341 340 340 340 340 340 341 341 339 337 333 330 330 335 338 338 339 340 339 339 339 339 338 337 336 335 336 336 337 337 335 334 335 335 335 335 336 335 333 332 332 332 333 334 333 332 332 332 332 331 331 332 332 333 334
315 316 316 316 315 316 316 316 317 317 318 317 316 315 316 316 316 316 316 318 317 318 335 342 344 348 348 348 350 351 348 343 339 336 336 338 337 338 339 340 341 341 341 340 340 340 340 340 341 341 339 336 332 330 332 336 337 337 339 340 339 339 339 338 338 337 336 336 335 335 336 336 334 333 334 335 335 335 336 335 334 333 333 334 333 334 333 332 333 332 332 332 332 332 332 333 333
315 315 316 316 316 317 317 317 316 316 317 317 317 316 316 316 314 316 315 318 316 316 337 346 346 348 348 348 348 347 345 340 337 336 337 339 338 339 342 343 342 341 341 340 340 340 340 340 340 340 339 336 334 334 335 336 336 336 338 340 339 338 338 337 337 337 336 336 336 335 335 335 334 333 334 334 334 335 335 335 334 334 334 333 332 333 333 333 333 332 332 333 333 332 332 334 333
315 315 314 315 316 316 317 317 317 316 316 317 317 314 315 315 315 317 315 318 315 320 341 347 346 347 347 349 348 347 346 339 338 338 338 340 341 340 342 345 343 340 341 340 340 340 340 340 340 339 339 337 337 337 337 336 336 337 338 338 339 338 337 337 337 336 336 336 336 335 334 335 334 333 333 333 333 335 335 335 335 335 334 333 334 335 334 334 334 333 333 334 334 333 333 335 334
315 314 314 314 314 314 315 316 316 316 315 317 316 313 316 316 315 316 315 318 314 322 342 345 344 346 346 348 347 347 346 340 340 341 341 344 343 341 342 345 343 340 340 340 339 340 339 339 339 339 339 338 338 337 336 337 338 338 337 337 338 339 338 337 336 336 336 336 335 334 333 334 334 333 333 333 333 335 336 336 335 335 334 334 335 336 335 335 335 335 335 335 334 332 332 334 333
315 313 314 315 313 313 314 315 315 315 315 317 315 312 316 316 315 316 315 318 313 323 342 344 342 345 343 344 344 346 347 341 340 342 345 347 345 344 344 345 343 340 340 339 338 338 339 339 339 339 339 338 338 336 337 338 339 339 339 338 339 339 338 338 336 336 336 336 335 334 333 333 334 334 334 334 334 335 335 336 336 335 334 335 335 335 335 335 335 335 335 334 333 332 332 333 333
315 313 314 315 312 312 314 315 315 315 314 316 315 312 315 315 315 316 314 317 314 324 341 344 341 343 343 345 346 346 348 344 341 344 347 347 344 344 346 346 343 341 340 339 338 337 338 339 339 339 339 339 339 337 338 339 339 339 340 339 339 338 337 337 337 336 336 336 335 334 333 333 334 334 333 333 333 333 335 336 336 335 335 335 335 335 335 335 335 335 335 334 333 332 332 333 333
316 313 314 315 312 311 313 315 315 315 315 315 315 314 315 315 315 315 315 315 314 321 336 343 340 341 345 349 349 349 349 348 346 347 346 344 343 344 346 346 343 342 341 338 338 337 338 339 340 340 339 340 340 339 339 339 338 339 339 338 337 336 335 337 338 337 336 335 335 334 333 333 334 334 332 332 333 333 334 335 336 336 336 335 334 335 336 335 335 334 334 333 333 332 331 333 334
317 315 314 314 313 312 312 314 315 315 315 314 315 315 315 317 315 316 315 315 317 318 330 340 341 341 346 349 350 351 350 350 350 348 345 344 343 345 347 346 343 342 341 339 338 338 339 340 340 340 340 340 339 339 339 338 338 338 338 337 336 336 335 336 337 337 336 334 334 333 334 334 334 333 332 332 333 333 334 334 336 336 335 335 335 336 336 335 335 334 334 333 333 332 331 333 333
316 315 314 314 313 312 312 313 315 315 316 316 315 316 316 317 315 316 318 317 321 321 328 340 343 344 347 348 348 350 349 350 349 346 346 346 345 347 347 345 342 342 341 339 338 339 340 340 340 341 340 339 337 337 337 337 338 337 338 337 336 335 335 336 337 337 336 335 334 334 335 335 333 332 333 333 333 334 333 333 334 335 335 335 335 336 335 334 334 335 334 333 332 332 332 333 334
314 315 314 313 313 313 314 315 315 315 316 316 317 316 316 317 316 318 320 319 322 322 326 338 344 346 345 345 346 347 348 348 346 344 346 346 346 347 346 344 342 341 342 340 338 339 340 340 341 341 340 339 336 335 335 336 337 337 337 337 336 336 336 335 336 336 336 336 335 335 335 334 333 333 333 333 334 334 333 333 333 334 336 336 335 335 334 333 334 335 335 333 332 332 333 334 334
314 314 313 313 313 314 316 316 316 317 317 317 319 319 317 319 320 319 320 319 320 321 321 331 342 344 343 342 343 344 345 344 343 344 346 346 345 346 345 343 342 341 341 340 339 339 340 340 340 341 341 338 335 333 334 335 336 336 336 336 335 336 335 335 335 335 336 335 334 334 334 334 334 334 334 334 334 333 333 333 334 335 336 336 335 335 334 334 335 335 335 334 333 332 333 333 332
315 314 313 314 314 314 317 317 316 318 318 317 319 319 319 321 321 321 321 319 319 322 320 326 338 341 339 341 340 339 342 344 344 346 346 345 346 345 344 343 342 341 341 340 339 339 339 339 340 341 340 336 334 333 334 335 336 336 336 335 334 334 334 334 335 335 335 334 333 334 334 335 334 334 335 335 334 333 333 333 334 335 336 335 335 335 334 335 335 335 335 334 333 332 332 332 332
317 316 314 314 316 316 318 319 316 317 319 319 320 319 322 325 323 321 321 319 319 321 321 325 336 341 337 338 339 338 342 345 346 346 344 344 345 345 343 342 341 341 341 341 340 339 339 340 340 341 338 335 335 334 333 335 335 336 336 335 334 334 333 334 335 335 335 334 334 334 335 335 334 335 336 335 335 334 334 334 335 335 336 335 334 335 334 334 335 334 335 334 333 333 332 332 332
320 317 314 314 317 315 317 320 317 316 320 322 322 320 324 327 323 322 321 321 319 319 319 321 331 338 338 337 337 337 340 342 345 346 344 343 344 343 342 341 341 340 340 341 341 339 339 340 340 340 338 335 335 334 332 335 336 335 336 335 334 334 333 335 336 334 334 333 334 334 334 335 335 336 336 334 335 334 333 334 335 334 335 335 334 334 334 334 335 334 334 334 333 334 334 333 333
323 322 317 317 318 315 316 318 317 320 325 326 321 319 324 325 321 322 320 320 320 318 319 319 323 329 332 337 337 337 338 338 343 346 345 345 343 342 342 342 341 340 339 341 341 340 339 340 340 339 338 336 335 333 333 335 336 335 335 335 335 334 334 336 336 334 334 333 334 334 334 335 335 336 336 335 335 334 334 335 335 334 334 335 335 335 334 334 334 333 333 333 333 333 334 333 333
322 324 321 319 319 317 316 316 316 318 321 324 319 316 324 328 320 320 320 319 319 318 318 318 317 319 323 334 338 337 336 335 341 344 343 345 340 338 339 340 340 339 339 341 340 339 339 339 339 339 338 336 334 333 333 336 335 334 335 335 334 334 334 336 335 334 334 334 334 334 334 335 335 335 335 336 335 334 335 336 335 334 334 335 336 335 334 334 333 334 334 333 333 333 332 333 333
317 321 320 319 318 317 316 314 313 314 317 323 319 314 320 324 320 321 322 318 318 322 323 320 321 324 326 331 335 337 337 335 339 341 342 342 337 335 337 338 339 338 339 341 340 339 339 339 339 338 337 335 334 333 334 335 333 333 335 334 333 334 333 334 334 333 334 334 334 334 335 335 335 335 335 335 335 335 336 337 336 335 334 335 335 334 334 334 334 334 334 333 333 333 332 332 332
317 320 317 316 316 315 316 313 312 315 318 322 321 315 314 316 320 323 319 318 324 330 330 327 327 331 332 332 333 336 336 336 340 343 344 341 338 336 336 336 336 336 338 340 339 339 339 339 339 338 337 335 335 333 333 333 333 333 334 334 333 333 333 333 333 333 335 335 335 335 336 336 335 335 334 334 335 335 336 336 336 335 335 334 334 334 334 334 334 334 333 333 333 332 332 332 331
318 319 315 315 315 315 316 314 314 317 316 316 319 316 312 315 324 324 317 322 332 335 334 331 330 331 332 333 336 338 336 337 341 344 346 343 338 337 337 336 334 335 337 339 339 338 338 339 338 337 336 336 335 334 332 333 333 333 335 334 333 333 334 333 333 333 334 335 335 336 336 336 336 335 334 334 334 334 335 335 336 336 335 334 333 334 334 333 333 333 333 332 332 332 332 332 332
316 316 315 315 314 315 318 319 316 317 318 317 317 315 313 317 323 324 327 332 335 335 333 331 331 332 332 335 337 339 337 337 339 344 346 342 337 338 338 336 334 333 335 338 339 338 339 339 338 337 336 336 336 335 333 333 333 333 334 334 334 334 334 333 333 333 333 335 335 336 336 336 336 334 333 334 334 334 334 335 335 335 335 334 334 334 333 333 333 333 332 332 332 332 332 332 332
315 315 315 315 317 320 323 323 317 315 320 319 315 316 314 314 320 327 333 335 333 335 335 334 335 334 335 336 336 336 336 337 338 341 343 338 335 337 336 335 334 333 334 338 338 336 337 337 337 338 337 336 336 335 334 333 332 333 334 334 334 335 335 333 333 333 333 335 335 336 336 336 336 334 334 335 334 334 334 335 335 334 334 334 334 333 332 332 332 333 332 332 332 332 332 332 331
315 316 315 315 320 322 320 320 317 315 322 319 312 314 312 313 323 332 333 334 335 336 337 337 338 337 336 336 335 336 337 338 338 339 340 338 337 336 334 334 333 333 334 335 333 330 331 334 337 337 336 336 336 335 334 332 332 333 334 334 334 334 335 334 333 333 334 334 334 336 337 336 336 335 335 334 334 334 334 334 334 333 333 333 332 332 332 331 332 333 333 333 333 333 332 332 331
315 316 316 315 317 318 317 318 318 318 320 319 314 313 312 318 328 331 332 334 336 336 336 336 338 338 337 335 335 335 335 336 337 338 339 340 339 335 333 335 334 334 334 331 329 329 329 332 337 337 336 337 336 334 334 332 332 334 335 334 334 334 335 334 333 334 334 334 334 336 336 335 335 334 334 334 333 333 333 333 333 333 333 332 332 332 331 331 332 332 333 333 333 333 332 332 331
316 314 316 318 316 316 318 319 319 318 316 317 318 314 315 325 331 330 332 333 332 334 334 334 335 335 335 333 333 333 332 332 333 333 334 336 336 332 331 334 333 332 331 327 327 329 330 332 336 337 337 337 335 333 333 332 332 334 335 334 333 333 334 334 333 334 335 334 335 336 336 335 335 334 334 334 333 333 333 333 333 332 332 332 332 332 332 332 332 333 333 333 333 332 332 332 332
316 314 316 319 317 316 318 317 317 318 320 322 320 317 320 330 334 332 333 332 330 332 332 331 331 331 331 330 331 331 331 331 331 330 331 331 331 329 329 330 329 329 327 325 326 328 330 333 336 337 337 337 335 333 332 333 333 335 335 334 333 332 333 334 334 334 335 334 335 335 335 334 334 334 333 333 333 332 332 332 332 331 331 331 332 332 332 332 332 333 334 333 332 332 332 332 332
317 315 313 317 319 317 316 318 317 319 327 327 320 322 329 332 333 333 333 332 331 331 329 329 329 328 329 328 328 329 329 329 330 330 330 329 328 328 328 328 327 327 326 326 328 329 330 333 334 336 337 337 336 334 333 333 334 334 334 334 333 332 332 333 333 334 335 335 335 334 334 333 333 332 332 332 332 331 331 331 330 330 331 331 331 331 331 332 333 333 333 333 332 332 332 332 332
319 316 314 316 319 317 315 319 319 319 326 324 318 327 333 331 332 333 332 332 330 329 328 328 329 328 328 329 328 328 328 329 330 329 328 329 328 328 329 329 328 327 327 328 330 329 329 331 333 334 336 337 337 335 334 333 333 333 333 333 333 333 332 332 332 334 335 335 334 334 333 333 332 332 332 332 331 330 330 330 329 330 330 330 330 330 330 331 332 333 333 333 332 332 332 332 332
316 314 316 317 316 315 314 318 319 319 323 321 318 328 332 332 335 332 329 332 330 328 328 328 329 329 329 329 329 329 329 329 330 328 327 328 327 327 327 328 328 328 328 328 329 329 329 330 332 333 333 332 333 334 334 333 332 332 333 333 333 333 333 333 332 334 335 334 333 333 333 332 332 332 332 331 331 330 330 329 329 330 330 330 329 329 329 329 329 330 331 332 332 332 332 332 332
315 314 318 323 319 316 314 315 317 322 324 319 321 332 333 333 336 333 330 332 331 329 328 328 330 329 328 328 328 329 329 328 329 329 328 328 327 327 327 327 328 329 329 328 328 329 330 331 331 330 329 328 329 332 333 334 333 332 332 333 333 333 332 333 334 334 334 333 332 333 332 332 332 332 331 330 330 330 329 329 329 329 329 330 329 328 329 329 328 329 331 331 331 332 332 332 332
316 314 316 322 321 319 318 316 318 323 325 320 323 335 337 334 333 331 329 329 329 329 328 328 329 328 327 327 327 328 328 327 327 327 326 325 324 325 326 326 328 329 328 328 328 328 330 330 328 328 329 329 329 330 331 333 333 332 332 332 332 332 331 332 333 333 333 332 332 332 331 331 331 331 330 330 330 329 329 329 329 329 329 328 328 327 328 328 327 329 330 330 331 331 331 331 332
315 315 314 315 317 320 320 319 318 318 323 326 328 333 334 331 329 328 328 328 328 328 328 328 328 326 326 326 326 326 325 324 325 324 324 323 321 321 321 323 325 327 327 327 328 328 328 329 328 328 329 329 329 329 330 332 333 333 333 332 331 331 331 331 332 332 331 331 332 331 330 330 330 330 330 329 329 328 329 329 328 328 328 328 327 327 327 327 327 328 328 329 330 330 330 330 330
317 318 317 317 318 318 318 321 320 315 320 329 335 335 331 329 328 327 328 328 327 328 328 327 326 325 325 325 325 324 321 321 321 321 320 320 319 318 318 319 321 325 327 326 326 327 327 328 329 329 329 328 328 328 328 329 332 333 333 332 331 331 330 330 331 330 330 332 331 330 330 330 330 330 329 329 328 328 328 328 328 327 327 326 326 325 326 326 327 327 326 328 329 329 329 328 329
Wind_Speed
7 5 2 1 3 5 5 2 1 2 2 3 5 3 6 7 8 8 3 5 5 4 5 5 6 5 3 5 10 10 7 3 0 2 2 5 18 28 28 30 31 32 31 27 26 25 24 24 23 23 22 23 23 23 23 22 21 21 22 23 23 22 21 20 19 19 18 19 19 19 19 19 17 17 17 17 17 18 18 18 17 17 17 17 18 18 18 18 17 16 15 15 15 14 14 17 19
7 4 4 5 6 3 3 2 1 2 2 4 5 4 8 5 2 1 6 7 4 1 4 5 5 5 4 7 11 9 8 5 4 5 6 18 25 25 28 29 31 33 31 28 26 25 25 24 23 23 23 22 22 23 23 22 22 21 22 23 23 22 22 20 18 18 18 18 18 18 18 18 17 18 18 17 18 18 18 17 16 16 17 17 16 17 17 17 16 15 14 13 13 12 15 18 17
7 5 6 8 7 4 2 0 1 2 2 5 5 5 8 3 3 7 8 8 6 2 5 5 5 3 4 9 8 6 3 3 8 8 8 19 18 18 27 26 30 32 30 28 26 26 25 24 24 23 23 22 22 23 23 22 21 21 22 22 22 22 21 19 18 18 18 17 17 18 18 17 16 17 18 17 18 18 17 16 16 16 16 16 15 15 15 16 15 14 13 12 11 13 16 17 16
8 6 7 5 2 2 1 1 3 2 3 5 5 5 1 4 5 8 6 6 6 4 2 2 4 3 7 11 7 7 6 3 7 8 5 12 18 24 27 23 27 28 27 27 26 26 25 24 24 23 23 22 22 23 23 22 22 21 22 22 22 22 21 18 17 17 16 16 17 18 17 16 16 16 17 17 18 18 15 15 16 16 16 14 13 13 13 14 14 13 12 11 11 12 16 16 16
8 7 8 5 1 1 1 2 2 3 5 4 3 5 4 3 4 6 3 5 6 4 2 2 2 3 8 7 3 4 6 5 6 9 9 15 26 30 25 22 25 25 24 23 24 26 25 24 23 22 22 22 22 23 23 22 22 21 22 22 22 22 20 17 17 16 16 17 17 17 16 16 16 16 16 16 18 16 14 15 16 15 15 13 13 13 12 12 12 12 11 11 10 11 15 16 16
7 7 8 6 3 2 0 2 3 5 7 6 4 3 3 5 4 4 4 4 6 4 3 2 3 6 6 4 4 3 5 8 7 10 15 21 29 29 25 24 25 24 23 21 21 24 25 24 23 22 22 22 22 22 23 22 22 21 22 22 22 22 19 17 17 16 16 17 16 16 15 15 15 15 15 17 18 15 15 15 15 14 13 12 13 12 12 11 11 10 10 9 9 9 13 16 16
5 5 4 3 2 2 1 3 5 6 8 8 5 3 2 4 3 5 7 4 4 2 3 1 5 9 4 2 4 7 8 13 10 14 22 27 29 26 24 24 25 24 22 20 19 23 24 23 23 22 22 21 21 21 21 22 22 21 22 21 22 21 18 17 16 16 17 16 15 15 15 15 14 15 15 17 18 16 15 14 13 14 13 12 12 11 11 10 10 9 8 8 8 8 12 16 15
6 4 1 1 1 2 2 4 6 5 8 8 4 4 3 5 3 4 5 2 2 1 4 3 8 11 4 5 4 7 15 18 18 22 29 29 28 25 23 25 26 24 21 19 18 23 23 22 22 22 22 20 20 20 20 21 21 21 21 21 22 20 17 16 16 17 17 16 15 16 16 16 15 16 17 18 17 16 15 13 12 13 12 12 11 11 9 8 8 7 6 7 7 8 12 15 14
7 4 1 1 2 3 3 5 6 7 11 8 4 4 4 4 3 3 2 3 3 2 6 6 6 10 6 10 6 3 13 21 24 27 29 28 26 24 23 25 28 25 22 18 19 24 23 22 23 22 21 19 19 20 20 20 20 20 20 21 22 19 16 16 17 17 16 16 17 18 17 16 16 18 19 18 17 15 13 12 12 11 12 11 10 9 8 7 7 6 7 8 8 9 12 14 15
3 5 1 2 2 4 5 6 6 7 10 5 5 5 5 4 3 4 2 3 4 3 2 3 10 11 9 9 5 2 11 22 24 24 26 26 26 24 22 26 28 26 23 19 22 25 22 22 22 21 21 20 20 20 20 20 19 19 20 22 21 18 17 17 17 16 16 17 18 18 17 16 17 18 18 17 16 14 13 13 11 11 12 11 9 8 8 7 7 7 8 9 10 10 13 15 15
1 4 2 2 3 4 5 5 7 8 8 3 5 3 4 4 3 2 2 2 3 5 3 6 12 11 9 5 2 6 16 21 22 23 24 24 24 23 24 27 26 24 22 21 24 25 23 22 21 21 21 20 19 20 20 20 20 20 21 23 20 18 18 18 17 16 17 18 18 17 15 16 17 18 17 17 16 14 14 13 12 11 11 9 8 8 8 7 7 8 10 11 11 13 16 17 15
2 4 2 3 4 4 6 5 7 7 4 3 4 2 2 5 5 3 6 5 5 6 5 5 8 8 8 3 2 8 16 18 20 22 23 23 21 22 26 27 24 22 22 23 26 26 23 22 21 21 21 20 20 20 20 21 21 21 22 22 20 19 19 18 17 17 19 19 18 16 15 16 18 18 16 16 15 14 13 12 12 11 10 9 8 8 8 8 8 9 10 12 12 15 18 17 15
3 4 2 4 4 4 6 6 7 5 3 2 1 2 1 6 6 5 6 5 5 6 3 10 10 7 6 2 2 6 11 16 20 22 23 23 19 22 28 26 23 22 23 25 28 25 23 23 22 21 20 20 20 19 20 22 22 21 22 21 20 20 19 18 17 18 19 19 18 16 15 16 18 18 15 14 13 13 12 12 12 11 9 8 8 8 8 8 9 9 10 12 13 16 18 16 14
4 3 3 4 4 4 5 6 6 2 0 2 1 1 2 5 5 5 2 4 5 4 4 12 10 9 5 2 2 3 8 19 23 22 22 22 20 23 29 27 24 24 25 27 28 26 24 23 22 22 20 20 20 19 19 21 21 21 21 21 20 19 18 18 18 19 19 18 17 17 16 16 17 16 14 12 12 12 12 12 12 10 9 9 9 8 8 8 9 10 10 12 14 15 16 15 14
5 2 2 3 4 5 4 6 6 0 2 3 0 1 2 4 4 5 1 3 2 3 4 7 5 6 5 5 4 5 11 22 25 23 21 22 22 23 28 28 27 28 29 30 29 26 25 24 24 23 22 21 20 19 18 19 20 20 20 20 19 18 18 18 18 19 19 18 17 16 16 16 15 14 13 11 11 12 12 13 12 10 9 9 9 8 8 8 8 10 10 12 14 15 16 15 14
5 3 2 3 4 5 4 6 5 1 1 2 3 3 3 4 3 3 1 1 1 4 3 4 2 5 7 6 6 12 18 23 25 23 20 21 21 22 28 29 27 29 31 31 29 27 26 26 25 23 21 20 20 19 17 18 18 19 19 19 18 18 18 18 18 18 18 16 16 16 16 16 15 14 12 11 11 12 13 13 12 10 8 8 9 9 9 8 9 10 11 12 15 17 17 16 15
4 3 3 4 5 5 5 4 2 2 0 4 6 6 4 3 4 1 0 1 2 2 6 5 6 7 8 7 14 22 23 23 23 21 20 21 21 22 24 24 23 25 29 30 28 27 26 25 23 21 20 20 20 19 18 19 18 19 20 18 17 17 18 18 17 17 17 16 16 16 17 17 16 15 13 11 11 12 12 11 11 10 8 8 9 9 9 8 9 10 11 13 16 18 18 17 15
4 3 4 5 5 5 6 3 1 3 1 4 3 4 4 3 4 3 2 3 4 3 7 6 9 7 9 16 23 26 25 24 21 18 17 15 14 13 15 21 23 22 25 26 25 26 24 23 21 19 20 21 21 21 20 21 20 20 20 19 18 18 17 17 17 17 18 18 17 16 16 16 16 15 13 12 12 12 12 11 11 10 8 9 10 9 9 9 9 9 10 12 14 16 15 15 14
4 3 4 5 6 7 8 5 2 4 3 3 3 4 4 3 4 3 3 6 4 3 6 7 9 8 11 18 21 23 24 18 12 11 14 19 21 19 17 17 18 22 23 24 28 28 25 26 25 24 25 25 24 23 23 23 22 21 21 21 20 19 18 17 18 18 19 19 18 16 16 16 16 15 14 12 12 12 12 11 10 10 9 10 10 10 10 9 8 9 10 10 12 13 13 12 13
4 4 4 6 6 7 9 7 4 7 6 5 6 6 5 5 4 2 4 9 8 4 7 6 7 7 9 11 15 20 21 20 24 25 20 19 22 20 18 13 13 19 22 27 31 31 31 35 34 34 34 32 31 28 27 26 24 23 23 22 21 20 20 19 20 20 21 20 19 18 17 16 16 15 14 13 12 12 12 11 10 9 10 11 11 11 10 9 9 9 9 9 11 11 10 10 10
4 5 6 6 6 8 9 5 6 7 7 5 5 6 6 6 2 2 4 7 8 2 8 11 9 9 10 10 13 18 20 20 21 19 8 10 17 20 22 21 20 20 20 24 31 34 34 36 34 33 34 34 35 34 32 30 27 25 24 23 21 22 22 21 22 23 22 21 20 19 18 17 16 15 15 14 13 13 13 12 10 9 9 11 12 11 11 11 9 9 8 9 10 9 8 8 6
3 6 9 8 8 8 9 4 5 5 6 4 2 3 5 6 3 2 2 4 5 2 9 12 13 12 11 12 14 15 15 12 12 12 11 11 15 18 22 24 26 26 25 26 32 37 36 35 35 34 33 34 34 35 34 32 30 28 26 24 23 23 23 23 24 24 23 22 21 20 20 18 16 17 17 15 14 14 14 12 11 9 8 10 11 11 11 12 10 9 8 8 8 6 6 6 5
3 6 7 8 9 8 9 5 3 5 5 3 1 3 4 5 4 3 1 5 6 5 12 11 12 12 14 15 14 13 12 11 9 10 13 15 16 20 22 22 24 31 33 31 32 36 37 36 37 36 36 35 34 34 34 33 32 29 27 26 25 24 24 25 25 26 25 23 22 21 20 19 18 18 17 16 15 14 12 10 9 7 7 10 11 10 10 11 11 9 8 8 7 3 3 6 5
6 6 7 8 9 8 8 6 1 5 3 1 1 4 5 5 3 4 4 7 7 5 12 10 10 11 15 15 13 12 11 10 9 12 18 20 18 21 22 23 25 30 35 34 33 36 38 37 37 37 37 36 35 35 34 34 33 31 28 27 26 26 27 27 27 27 26 24 21 20 21 20 19 19 17 16 15 13 10 9 9 8 8 10 10 9 9 9 11 10 9 9 5 3 4 7 6
7 7 8 8 8 8 7 6 4 1 1 2 2 5 6 6 3 3 6 9 7 5 12 9 11 13 13 12 11 11 9 8 11 15 21 20 15 18 20 20 21 23 29 32 32 34 35 37 37 37 38 37 36 35 34 34 33 31 30 29 28 27 28 28 28 28 27 24 21 20 21 20 20 19 18 16 15 13 10 9 9 8 8 9 9 8 8 8 9 10 11 8 5 6 6 7 10
8 9 8 7 8 8 7 7 6 3 2 3 3 6 7 7 5 5 7 9 9 3 11 10 12 14 11 10 10 10 9 9 11 12 16 16 14 14 16 17 16 18 24 29 31 31 32 35 37 37 38 36 35 34 32 32 32 32 31 30 29 27 28 27 27 28 26 24 22 21 21 21 21 20 18 16 16 14 11 10 10 9 8 8 7 5 6 6 6 9 10 7 6 7 6 8 10
5 6 6 8 8 6 6 6 5 4 4 5 4 6 6 6 3 4 7 9 10 5 10 11 11 12 11 10 9 9 9 10 13 14 14 15 15 14 15 15 15 17 22 26 28 28 30 33 35 35 35 34 34 33 30 28 30 31 30 30 29 28 28 26 26 27 25 23 22 22 21 21 20 19 18 17 17 15 12 12 12 11 9 9 8 6 7 7 6 8 8 7 7 5 6 10 10
5 3 3 7 7 5 6 6 7 4 2 4 3 5 6 6 4 5 7 7 10 5 9 11 10 10 11 10 9 6 7 10 16 16 14 14 16 18 18 17 17 19 21 24 27 29 29 31 33 32 31 31 31 31 29 27 28 29 29 30 29 28 28 26 25 25 24 23 22 21 20 21 20 19 18 18 17 15 13 12 12 11 10 10 10 9 10 9 7 8 7 7 6 3 8 12 9
6 5 4 6 6 5 7 6 7 5 2 4 3 4 5 5 7 10 9 7 9 3 12 12 10 10 9 9 8 5 6 11 14 13 14 15 18 21 20 20 20 20 20 23 26 29 29 30 31 29 29 29 29 30 29 25 27 28 28 29 27 27 26 25 25 23 23 22 21 21 20 21 21 19 18 17 17 15 13 12 11 11 11 11 10 10 11 10 8 8 8 6 5 7 12 13 9
5 4 3 5 5 6 9 7 8 7 5 6 5 2 6 7 8 10 9 8 10 5 12 12 11 9 8 8 7 6 7 9 12 14 17 17 18 21 21 19 20 21 20 21 25 28 29 30 29 27 28 27 27 29 28 25 27 27 27 28 26 25 24 23 23 22 22 22 22 22 21 21 21 20 19 18 17 15 13 12 12 12 12 11 10 11 11 11 8 8 8 6 7 9 12 13 10
4 3 2 2 2 7 9 7 9 9 8 8 7 3 7 8 8 11 8 9 11 7 13 12 10 8 7 7 5 7 8 9 14 19 21 20 19 20 20 19 20 21 20 20 24 25 27 29 28 27 28 26 25 29 28 25 27 28 28 28 26 24 23 22 22 22 22 23 24 24 22 21 21 21 19 18 17 16 14 14 13 11 11 11 10 11 12 11 9 8 8 7 9 10 12 14 11
2 1 4 2 4 9 9 8 11 10 8 9 8 2 7 9 10 11 9 10 11 7 14 12 11 10 7 6 5 6 6 9 15 19 22 22 20 18 19 22 21 21 21 21 23 22 24 27 27 27 27 25 26 30 29 25 27 29 28 28 26 23 22 23 22 23 23 24 25 24 22 21 21 20 18 17 15 15 15 15 13 10 11 12 10 11 12 10 10 9 6 7 9 10 13 16 14
2 4 4 4 5 7 7 8 13 14 7 8 9 2 5 9 8 8 10 13 12 8 13 12 11 10 8 5 5 6 6 8 11 15 23 23 20 19 20 23 23 21 20 20 23 23 22 25 26 27 28 25 27 30 29 27 28 30 27 27 26 23 23 23 23 24 24 25 26 25 21 19 20 19 17 17 15 15 15 15 14 11 11 12 10 11 11 9 9 9 7 6 8 9 13 17 17
3 4 5 5 7 7 6 6 9 15 7 6 7 4 6 10 9 9 10 7 11 8 11 14 11 9 8 6 6 7 7 8 9 12 23 26 23 23 23 24 23 21 20 20 23 23 22 24 24 27 27 24 26 27 25 25 26 26 25 25 25 23 23 23 23 23 24 25 26 24 20 18 18 18 17 17 15 15 15 15 15 12 11 11 11 10 9 9 8 9 9 7 7 10 14 17 17
5 5 4 5 8 7 7 5 5 11 7 7 8 5 9 12 9 9 9 4 11 8 9 13 13 12 10 8 8 8 8 8 9 12 23 28 28 27 26 26 25 23 23 21 22 22 20 22 24 26 26 23 25 23 22 25 24 23 23 23 24 24 22 21 22 22 23 24 24 22 19 17 18 18 17 16 15 15 14 15 15 13 11 11 12 10 9 9 9 10 10 9 9 11 14 17 17
9 7 5 6 6 6 8 5 8 10 7 6 8 7 8 9 8 7 7 4 6 6 8 11 12 12 10 9 8 8 9 8 9 15 23 27 27 27 27 27 26 24 24 22 22 23 21 22 23 25 25 22 22 20 22 26 24 24 25 22 23 24 22 21 21 22 22 23 22 20 19 18 17 16 16 16 15 14 14 14 14 14 12 12 12 11 10 10 11 11 10 11 12 13 15 17 16
10 8 4 4 4 6 7 4 10 9 6 4 6 5 5 6 8 8 5 4 1 3 5 8 11 11 9 10 10 9 9 7 9 15 20 23 25 27 28 27 26 24 24 22 22 24 24 24 24 25 26 21 16 18 25 28 24 25 26 24 24 23 22 23 22 21 22 22 21 20 19 18 17 15 15 15 13 13 13 13 14 15 14 13 13 11 10 11 12 12 11 11 12 14 16 17 18
9 7 5 6 4 6 8 3 9 6 5 4 4 3 4 6 7 10 7 4 3 5 5 6 11 12 10 11 11 10 7 5 8 11 15 20 24 27 29 27 27 25 25 25 24 26 26 26 25 25 25 19 14 19 26 25 19 18 19 22 25 22 21 23 22 22 22 21 21 21 20 19 18 16 14 14 12 11 12 13 17 16 14 14 13 11 11 13 13 13 13 12 11 14 16 17 18
8 5 4 6 4 5 8 1 5 3 4 4 4 5 4 6 6 9 9 8 6 5 6 8 12 12 10 12 12 9 9 8 9 9 10 16 22 26 28 28 29 27 27 28 26 27 27 27 26 24 25 21 17 21 22 17 15 14 13 16 22 23 21 22 20 20 20 18 19 20 19 19 18 16 15 14 13 12 12 15 18 17 15 15 14 12 13 13 13 12 14 14 14 15 15 16 16
4 2 2 4 4 4 5 3 2 1 3 4 5 3 3 5 5 7 7 8 6 6 7 5 11 14 13 14 13 12 13 11 11 9 8 13 19 24 26 27 29 28 28 28 27 28 26 26 25 23 25 22 20 23 17 14 18 18 16 15 16 19 21 21 18 19 20 17 17 19 19 19 18 16 16 15 15 15 16 18 17 17 16 14 14 14 14 14 13 12 13 14 15 17 17 16 13
1 1 1 3 5 5 6 7 4 2 3 2 5 2 3 3 5 7 7 7 5 6 7 6 5 10 12 14 14 14 15 14 13 12 10 11 15 21 25 27 27 28 28 27 28 29 26 26 24 23 25 21 21 22 16 16 21 19 20 18 14 13 16 19 20 20 20 17 17 19 19 18 17 17 18 18 18 16 16 17 15 16 16 14 14 14 14 14 14 13 13 14 15 16 17 16 12
3 0 3 4 7 9 9 11 7 4 5 2 4 1 5 4 5 7 7 6 8 7 7 10 8 3 3 9 11 12 14 13 14 14 13 13 15 19 22 26 28 27 25 26 28 30 28 28 25 23 24 22 21 21 17 18 21 19 21 22 17 14 14 17 19 20 20 19 19 19 18 17 16 17 19 19 18 16 16 15 14 15 17 15 14 14 14 13 13 14 14 14 14 14 16 16 14
2 2 4 5 8 9 9 11 6 1 3 4 2 2 4 5 4 6 6 5 6 5 7 7 3 6 7 3 1 6 8 8 9 9 8 9 11 15 19 27 30 25 24 26 29 30 28 28 27 24 24 22 22 22 19 21 22 20 20 21 17 15 17 21 21 21 21 20 19 19 18 16 15 17 17 16 16 15 17 16 14 16 17 16 14 13 14 13 13 14 14 14 14 13 15 17 16
2 5 7 8 9 9 9 10 6 3 4 3 3 2 1 4 4 8 8 4 2 7 10 7 7 10 10 9 6 3 7 7 8 9 10 8 6 9 15 22 22 23 26 28 29 30 28 28 28 27 26 24 22 21 21 23 26 26 24 23 19 16 22 26 23 23 22 20 19 18 17 15 14 15 14 15 16 15 17 17 16 15 15 15 15 14 13 13 14 15 14 13 13 12 13 16 18
4 6 9 9 6 6 8 6 3 3 2 4 5 3 2 4 4 8 8 2 6 7 8 9 10 12 11 10 9 4 5 7 9 10 11 10 11 13 17 15 12 19 24 24 27 29 27 28 29 29 28 25 24 23 25 26 28 29 26 25 22 17 20 22 21 22 23 22 20 19 17 16 15 14 13 16 17 16 17 17 17 16 13 14 16 15 14 14 13 14 15 14 13 13 13 15 16
6 8 9 8 5 5 3 2 2 4 3 3 5 0 1 5 4 5 4 4 5 5 5 9 10 11 10 8 9 9 8 8 8 10 10 11 17 21 21 16 11 16 16 16 23 27 27 27 27 29 30 27 27 28 29 29 29 28 26 24 23 19 18 19 20 21 23 22 20 19 18 17 17 16 16 17 16 14 15 16 16 16 14 14 15 15 15 14 13 13 15 15 14 13 14 14 15
7 8 7 5 5 3 2 3 4 4 1 4 4 1 2 3 5 4 4 3 3 3 5 7 8 10 9 8 8 9 8 6 6 7 6 6 10 11 10 7 7 10 9 8 14 19 22 23 24 27 30 29 29 29 29 29 28 27 26 26 25 22 20 22 22 22 22 21 20 19 19 19 19 19 18 18 16 15 15 15 14 14 13 13 13 13 14 13 13 14 15 15 15 13 13 14 14
4 3 1 1 4 4 4 5 4 1 4 5 4 5 4 2 3 3 3 4 5 6 6 7 9 9 8 8 8 8 8 6 5 4 4 5 7 6 6 5 5 8 9 10 12 11 11 17 22 25 27 27 28 28 28 28 26 26 27 28 28 25 23 24 25 24 23 22 21 20 19 20 20 19 20 18 17 16 15 15 14 14 14 13 12 13 14 13 13 14 15 15 14 12 13 14 14
2 2 3 3 2 3 2 2 1 2 5 5 5 5 4 2 1 2 5 6 7 7 7 9 11 11 10 10 9 8 8 8 7 7 7 7 6 6 7 6 6 8 12 16 19 17 14 18 23 24 25 27 27 28 28 28 27 27 28 30 30 28 25 25 26 25 23 23 23 21 20 21 21 20 20 19 18 16 16 16 14 14 16 13 11 13 14 13 13 13 15 15 14 13 12 13 14
5 3 3 4 2 0 1 3 2 4 5 5 4 2 1 1 1 4 5 6 7 8 9 11 12 13 12 12 11 9 9 8 7 8 7 7 7 8 9 7 6 10 14 18 19 22 24 27 27 25 26 28 27 28 29 30 30 29 31 32 32 30 27 25 26 25 23 23 23 22 21 23 23 21 20 19 18 18 17 16 15 14 16 14 12 14 14 13 13 12 14 15 15 14 13 12 13
5 5 5 5 4 3 3 3 3 4 3 2 0 2 2 3 2 3 4 6 7 9 11 12 12 11 11 12 12 10 8 8 7 7 6 6 8 11 12 12 12 14 18 17 13 18 29 33 33 31 30 29 28 28 30 32 32 31 32 32 32 33 30 27 26 24 22 22 23 23 23 23 23 21 19 19 19 19 18 17 16 14 15 15 14 15 14 14 14 12 14 14 14 15 14 13 13
3 5 5 4 5 5 4 4 4 4 1 3 1 2 1 3 2 2 6 8 10 12 13 12 12 11 11 11 10 9 7 7 7 6 5 6 9 11 11 10 10 11 11 10 12 21 28 32 34 34 33 33 32 30 31 33 34 32 32 30 30 32 33 29 26 24 22 22 23 23 24 24 23 21 20 19 19 19 18 18 17 14 15 16 14 14 14 15 15 14 15 15 14 14 14 13 13
2 3 5 6 7 5 2 4 3 4 4 2 2 3 1 1 1 5 9 11 13 13 12 11 11 11 12 10 8 8 8 7 7 6 6 7 8 10 9 6 3 3 9 15 18 17 17 21 26 30 31 31 31 30 29 30 31 31 31 29 26 29 33 32 29 27 23 23 23 23 24 24 22 21 21 19 18 17 18 18 17 16 16 15 14 13 13 14 14 14 14 14 13 12 12 13 12
2 2 4 5 5 5 3 1 2 3 2 3 3 5 1 1 1 5 8 11 11 11 10 10 11 12 12 10 8 9 9 10 9 7 7 8 8 9 9 7 5 7 8 8 8 6 7 10 15 20 20 18 21 23 25 26 27 27 29 29 25 25 29 31 31 29 26 25 23 22 23 23 21 22 21 19 18 18 18 17 17 17 16 14 14 13 13 13 12 12 12 13 13 12 11 12 11
6 4 2 3 3 4 2 2 1 2 2 2 3 5 2 1 1 3 7 9 8 8 9 10 12 12 11 10 10 10 10 11 10 10 11 11 13 13 12 13 12 7 5 2 3 2 4 3 2 3 6 8 14 16 19 25 25 22 25 28 26 24 26 28 29 28 26 27 25 22 24 23 23 23 22 20 19 18 17 17 17 17 16 15 13 11 13 14 11 10 11 11 13 12 11 11 11
5 4 3 1 4 4 2 3 3 3 3 2 2 3 1 1 2 4 6 6 6 7 7 8 10 10 9 8 9 8 9 10 10 12 13 14 20 23 19 19 16 8 6 6 2 1 2 2 5 6 5 4 8 8 13 23 25 21 21 25 26 24 24 26 27 26 26 26 25 24 25 25 25 24 22 20 19 18 17 17 17 16 16 15 12 11 13 13 10 10 10 10 12 12 11 12 11
3 3 3 2 1 3 3 3 2 4 3 3 3 2 3 2 3 5 5 5 4 5 6 8 9 10 9 8 7 8 9 11 11 12 12 13 20 25 24 23 20 14 13 11 5 1 1 2 1 7 11 10 10 12 18 25 25 22 21 22 25 25 23 24 26 27 26 25 25 27 27 26 25 24 22 20 19 18 16 15 16 16 15 14 12 11 12 12 11 10 10 10 10 11 11 11 11
5 2 1 1 2 1 2 3 2 3 3 3 4 3 1 3 3 4 6 5 4 5 7 9 9 9 9 8 8 9 11 12 13 13 12 12 16 21 24 24 23 18 15 15 14 9 4 0 3 9 13 13 14 18 23 25 25 24 22 21 23 24 23 24 26 28 27 25 26 28 27 26 25 22 21 19 18 19 16 15 16 15 15 14 11 10 11 12 11 9 10 11 10 11 11 11 11
Wind_Direction
276 280 272 306 302 313 297 226 110 274 169 263 254 232 258 232 243 270 6 36 57 22 1 38 29 37 60 101 110 82 42 19 121 139 149 138 120 130 144 146 151 154 154 154 153 154 156 158 158 157 157 156 157 156 155 152 149 149 149 148 144 139 136 132 129 128 126 123 119 117 115 112 111 111 108 104 103 103 104 104 104 101 97 92 87 84 82 81 83 84 84 84 86 88 92 105 111
265 274 292 294 282 291 274 177 142 258 151 267 257 203 251 271 296 338 75 63 64 29 1 24 26 26 45 94 112 82 44 31 81 90 103 119 113 123 139 144 150 152 153 153 153 153 155 157 157 157 157 157 158 158 156 154 150 150 150 148 145 141 138 134 129 129 127 123 120 119 117 114 115 115 111 106 104 104 106 108 107 104 101 96 90 86 84 82 79 76 80 82 86 93 99 109 117
257 266 289 290 269 242 285 321 207 242 182 248 260 235 238 227 115 92 83 92 104 75 10 10 34 16 39 68 75 77 94 81 93 94 111 120 112 127 138 144 150 150 151 151 152 153 154 156 158 157 157 158 158 158 157 154 151 150 150 149 147 143 139 134 131 131 129 125 123 123 119 116 117 117 114 110 109 109 113 114 109 106 104 98 92 89 87 83 78 74 74 74 82 100 109 114 120
261 257 273 287 276 227 302 247 198 215 228 239 271 288 239 155 122 93 91 110 128 133 52 28 55 36 73 82 76 83 120 126 96 99 115 122 126 139 138 141 147 145 145 148 150 151 153 156 158 157 159 159 157 158 157 154 152 151 151 150 148 145 140 134 132 132 131 129 127 126 121 119 121 122 120 114 114 118 121 116 109 108 106 100 95 92 90 84 80 78 74 69 74 101 117 121 122
265 255 260 260 264 236 195 248 211 205 227 225 250 312 27 76 73 85 107 113 119 129 106 78 90 68 73 76 78 99 128 116 77 87 96 118 133 139 136 137 142 140 139 142 148 150 152 155 157 157 158 157 156 157 155 154 152 152 151 151 149 146 141 134 133 133 134 134 133 131 126 124 126 127 123 119 123 126 123 114 110 109 107 102 98 94 91 86 83 81 80 77 74 97 122 127 124
271 274 263 238 255 306 274 261 254 245 239 227 234 289 40 56 29 37 37 84 94 103 109 78 104 91 79 55 53 76 145 133 99 104 113 125 136 137 133 134 136 136 136 141 148 148 149 154 156 155 155 153 153 154 154 154 153 152 152 152 151 147 141 136 136 136 138 140 140 138 135 133 132 130 127 128 131 128 119 113 110 109 107 104 100 97 92 90 89 85 83 84 80 93 123 133 129
265 292 275 212 261 284 237 255 252 266 255 242 234 218 151 78 39 27 27 45 55 100 148 131 107 91 78 90 57 33 81 121 123 128 131 134 137 133 132 133 132 134 136 143 148 147 148 153 154 153 152 150 151 153 153 154 153 153 153 154 153 149 142 139 139 141 143 145 145 142 141 139 136 133 132 135 134 128 121 118 116 114 113 109 106 101 98 97 93 86 79 80 83 93 121 135 135
240 264 285 163 258 242 209 252 248 255 261 259 227 178 123 84 82 47 24 11 10 145 172 211 113 91 60 82 83 33 72 114 133 136 137 137 138 134 135 133 132 135 139 145 146 144 147 152 151 150 148 148 151 152 153 153 154 155 156 157 156 151 144 142 143 148 148 148 148 144 141 138 138 135 134 136 133 129 125 126 125 122 120 114 110 106 102 98 92 83 74 76 84 95 115 134 138
230 227 273 220 216 257 240 251 250 241 251 255 203 153 96 93 105 93 36 325 303 196 193 216 118 104 105 85 91 58 82 117 130 134 138 139 140 137 138 136 133 134 138 142 143 143 146 149 147 146 144 147 151 150 153 153 154 157 158 159 157 152 147 148 149 152 150 145 147 145 140 139 138 136 137 138 135 133 129 132 130 125 124 116 112 106 99 90 84 73 69 77 89 101 116 133 139
212 200 239 266 218 262 255 255 254 250 254 228 160 147 120 116 102 117 115 273 283 320 231 124 94 112 117 94 99 119 113 126 130 134 139 141 141 140 138 136 135 134 137 141 143 142 142 145 144 144 143 146 150 150 154 155 156 157 159 160 156 151 149 152 154 154 148 145 148 146 143 143 142 139 140 141 141 140 135 138 134 127 124 117 113 102 94 87 78 70 72 79 92 108 120 131 137
229 215 190 262 254 254 247 256 257 265 259 162 121 123 122 119 93 85 67 289 318 339 274 96 97 115 107 100 113 129 130 132 135 139 143 144 142 140 137 134 135 137 139 141 139 138 138 142 142 142 144 147 151 153 156 157 159 158 160 161 157 154 153 155 156 154 148 147 151 149 147 147 147 144 142 145 150 148 141 143 136 129 126 119 113 101 98 92 81 77 80 84 97 116 124 130 132
241 249 174 229 239 234 245 259 259 274 276 106 104 142 142 120 95 63 43 358 338 324 290 111 125 123 100 117 146 141 137 139 144 144 146 147 142 137 136 133 134 137 137 136 134 133 135 137 138 141 145 150 154 156 158 158 159 160 161 162 159 156 156 157 156 154 151 152 153 152 149 149 151 150 148 150 155 153 147 146 137 131 132 126 115 105 106 98 85 86 90 89 105 124 128 130 122
218 248 212 234 239 240 262 269 269 302 351 51 182 217 123 88 71 54 45 337 310 321 1 110 132 110 95 138 147 160 142 144 147 145 146 145 144 134 133 134 136 136 131 130 129 130 135 136 137 141 147 153 156 158 158 159 161 162 162 162 160 158 158 158 158 157 156 157 156 153 150 149 150 153 153 153 156 155 151 147 139 136 139 130 119 112 111 102 92 95 97 94 108 130 133 128 112
211 238 216 249 272 271 276 276 282 332 306 246 234 293 15 74 84 83 78 274 304 333 95 112 120 97 100 143 133 204 149 148 149 148 149 145 146 135 134 136 135 133 127 126 125 128 134 138 142 145 151 156 156 157 157 160 162 163 163 162 161 160 159 161 163 161 160 162 159 154 151 149 149 154 155 154 159 157 153 149 140 142 146 132 119 119 119 106 97 102 106 99 106 131 136 123 108
213 243 232 262 283 281 275 269 278 83 210 263 335 318 34 65 95 103 141 219 294 304 109 105 113 102 143 175 178 199 156 151 149 151 152 145 146 138 136 135 129 129 126 123 124 131 139 144 150 153 157 158 155 154 156 160 163 164 165 164 163 162 163 166 167 166 166 167 163 158 154 152 151 156 158 160 163 158 154 149 145 150 150 136 124 125 126 111 102 107 113 105 105 126 134 122 108
210 233 253 274 269 277 270 271 297 72 235 332 26 340 73 70 58 102 232 166 300 304 72 82 82 119 162 178 163 161 155 150 149 155 153 145 143 135 136 133 123 121 122 124 128 139 148 153 155 157 158 155 153 152 153 158 163 168 169 168 167 166 169 170 169 170 171 170 167 162 159 158 158 162 166 169 167 161 156 151 152 158 155 140 128 132 134 118 108 110 117 113 109 119 125 121 110
214 215 245 268 258 261 258 268 333 111 243 38 36 352 47 59 4 48 272 303 266 41 82 98 94 123 153 148 145 147 149 147 150 156 146 144 141 130 128 116 101 104 117 128 136 145 151 153 154 155 156 153 153 153 155 159 165 171 172 170 170 171 171 173 173 172 173 174 172 168 165 163 164 168 172 172 167 162 159 156 156 160 161 143 129 136 143 130 116 112 118 120 117 118 120 120 113
222 192 216 246 246 243 258 263 166 146 92 62 47 358 37 33 355 357 6 325 249 106 85 94 90 97 114 129 136 137 145 149 154 154 137 126 112 99 90 89 95 104 120 130 135 140 142 142 148 153 154 155 157 159 160 164 170 173 173 172 173 173 171 176 178 175 176 177 175 172 168 166 166 171 172 172 169 163 161 160 160 163 162 147 135 141 150 142 127 117 118 124 128 126 124 123 117
214 197 215 229 237 245 268 287 103 90 57 42 35 44 45 6 356 344 350 331 300 94 82 74 82 85 100 122 127 130 141 131 102 81 71 64 59 57 61 78 103 108 120 135 138 143 148 151 160 166 163 163 164 164 166 169 172 173 174 174 174 173 171 176 176 175 177 177 176 173 170 167 168 171 170 170 169 164 163 161 164 172 166 153 147 150 159 152 137 128 122 122 132 134 132 127 118
208 206 238 238 244 260 278 304 53 69 46 21 12 24 7 339 348 1 2 335 330 82 118 101 89 100 108 120 119 117 106 74 54 49 49 68 79 92 102 104 105 105 125 146 151 156 165 168 172 172 168 166 166 166 168 170 171 172 174 174 174 173 171 172 172 172 175 176 175 173 170 167 169 169 166 166 167 163 162 162 167 176 169 161 161 162 167 165 151 140 132 122 125 132 136 131 120
193 201 233 251 266 278 283 320 56 72 62 38 353 351 330 311 315 54 27 333 324 54 136 136 131 134 131 122 105 94 81 70 70 72 89 118 104 113 125 127 123 125 140 158 166 168 172 173 172 172 169 166 165 166 167 168 168 170 172 173 176 176 174 171 171 172 174 175 174 173 171 168 168 166 166 167 167 165 164 166 170 176 174 170 171 170 172 175 166 153 144 128 122 123 124 124 122
195 224 231 245 258 272 281 324 66 86 80 66 326 314 294 301 329 59 76 269 277 139 146 146 147 150 136 116 98 91 92 100 110 131 161 134 110 123 133 131 130 137 149 170 178 173 174 174 173 174 171 169 168 167 168 167 166 169 171 173 178 179 178 174 173 175 175 175 173 174 173 171 170 168 170 169 167 168 169 172 176 182 184 176 175 173 173 177 174 162 152 136 130 125 122 134 141
211 250 240 240 244 256 277 297 88 99 82 76 336 307 301 327 345 350 40 252 267 151 154 155 152 146 119 109 107 108 118 136 149 146 134 127 135 145 147 144 142 145 154 173 180 173 176 177 177 177 173 173 172 171 169 166 166 169 170 175 181 179 178 177 176 177 178 177 174 175 175 174 173 171 169 166 165 167 168 174 172 171 174 170 170 169 167 175 177 168 161 146 137 129 150 166 161
216 254 256 254 255 253 266 278 123 101 94 138 311 316 311 329 346 340 317 275 292 130 154 155 144 127 105 108 117 129 142 141 121 118 137 154 155 149 157 161 159 156 157 170 174 172 178 178 179 178 175 176 174 174 170 166 168 169 171 177 182 180 178 179 178 179 181 179 176 176 179 178 176 173 167 163 163 160 157 159 149 136 145 155 158 155 150 160 169 165 160 152 154 185 177 185 187
214 241 254 259 269 267 271 282 286 348 155 199 264 280 273 278 275 286 277 275 296 134 149 144 119 104 98 112 123 142 154 129 117 134 155 165 150 145 165 170 166 162 158 166 170 172 177 178 179 178 176 176 175 175 171 168 170 171 172 177 181 181 180 179 179 181 182 182 179 177 180 181 178 173 167 164 161 156 156 158 153 146 144 151 156 152 147 150 158 161 160 161 178 185 171 186 196
207 224 242 250 261 270 279 280 268 248 205 182 228 252 250 247 240 249 250 262 283 177 142 132 117 111 112 123 137 157 149 133 144 147 145 146 141 151 169 172 169 165 160 163 168 171 175 176 178 178 177 176 174 175 174 171 172 173 174 178 181 181 181 180 180 182 182 183 182 181 182 184 184 177 169 166 162 163 172 178 181 184 180 175 170 168 172 167 167 167 167 176 181 185 190 185 191
219 221 242 254 260 265 276 285 265 225 201 192 216 253 261 253 230 243 243 237 259 241 139 128 119 123 133 141 159 166 144 146 157 145 134 139 149 162 171 175 170 168 164 161 166 171 174 175 176 177 177 175 173 175 178 175 175 176 176 179 182 182 183 180 179 181 180 183 183 183 184 185 187 181 173 170 168 171 181 186 187 191 194 188 179 176 179 177 176 170 172 186 187 195 192 176 188
290 296 279 267 279 294 295 301 291 287 217 190 219 263 271 274 251 242 247 234 245 234 124 122 126 136 143 151 166 161 141 151 152 148 148 151 162 170 175 181 173 166 167 164 167 172 174 176 175 177 176 172 172 176 179 178 179 179 177 180 182 184 185 182 181 181 181 183 184 185 187 189 187 182 179 177 175 178 180 181 182 184 183 179 178 176 175 176 175 174 181 189 185 163 148 157 179
290 294 306 290 307 295 272 271 267 277 239 182 199 279 279 261 241 239 244 248 255 194 120 131 141 144 148 157 165 151 143 150 148 150 157 162 171 176 179 183 173 163 166 168 170 173 175 175 175 177 175 170 173 177 178 180 179 178 178 180 181 183 185 184 184 185 184 183 183 185 188 190 188 184 183 181 179 177 173 175 177 178 177 175 179 180 176 174 171 173 187 187 162 137 130 139 158
269 265 273 290 322 280 247 238 234 232 225 192 170 261 276 252 239 244 234 226 244 185 132 147 149 150 160 163 162 149 149 155 152 152 158 168 176 181 183 181 173 163 162 167 172 176 176 176 176 175 173 171 175 178 180 181 178 176 178 180 181 184 187 187 186 186 186 182 180 183 187 190 187 183 181 180 180 176 170 171 175 178 178 178 180 182 177 171 166 166 182 183 155 143 127 129 146
281 288 275 238 278 270 248 225 218 213 215 187 157 214 261 261 253 258 249 224 234 174 140 154 151 158 166 156 158 158 161 163 159 153 159 172 175 178 180 174 172 166 161 167 172 175 177 177 176 173 172 171 175 179 180 182 178 175 178 181 181 185 190 190 188 186 184 181 180 184 189 188 182 180 180 179 179 176 171 167 171 178 179 180 180 178 175 171 171 168 176 174 149 141 127 127 138
245 240 298 238 195 259 260 234 213 203 205 161 137 203 259 267 253 251 253 232 234 162 145 158 153 161 166 156 162 161 162 160 160 154 157 175 180 178 175 167 168 167 166 170 171 171 173 176 176 173 171 171 176 180 179 181 180 177 179 182 181 184 189 189 190 188 183 180 181 186 188 183 180 181 181 182 181 178 176 166 162 171 174 178 178 173 175 176 179 170 167 172 150 136 129 126 129
239 177 241 241 218 255 269 251 209 193 195 145 133 158 253 272 260 259 262 224 210 157 144 152 150 159 165 168 167 157 156 158 164 156 155 172 184 181 174 164 163 167 168 171 172 168 166 172 177 175 173 176 180 181 179 180 179 176 179 180 179 182 185 187 189 186 183 181 182 186 185 182 184 185 184 186 184 178 177 166 157 163 170 173 174 174 179 182 186 177 162 170 160 145 142 132 126
277 206 219 238 239 247 266 273 198 178 171 137 138 160 234 266 276 289 293 201 168 145 141 147 150 159 167 171 167 161 164 166 174 163 157 167 178 176 169 163 162 163 165 170 170 166 165 171 176 178 178 178 181 182 177 175 174 173 176 178 176 178 181 184 187 185 183 183 182 182 180 181 186 187 188 189 186 180 176 167 159 164 173 173 173 179 189 184 181 179 162 153 154 150 151 141 129
238 216 208 238 250 249 254 272 180 164 150 141 150 185 237 260 273 289 315 105 133 140 140 146 155 161 166 169 166 169 174 175 181 168 157 160 168 167 161 158 158 157 161 166 164 162 166 173 178 184 182 178 183 183 169 167 171 170 171 174 173 173 177 179 184 186 185 183 181 180 178 179 186 188 190 189 185 183 182 173 163 166 179 179 177 181 189 183 171 168 157 140 137 140 144 143 135
242 239 206 224 253 260 253 221 170 164 149 150 164 192 236 264 281 291 322 35 124 157 150 147 158 162 164 165 165 174 179 184 185 171 159 156 158 159 155 152 152 154 159 160 161 165 171 176 181 188 186 182 185 178 160 163 169 167 166 168 169 171 174 174 178 185 187 184 182 183 183 183 187 188 188 187 181 181 185 176 166 173 184 180 178 182 184 179 167 161 156 146 140 138 139 142 142
259 276 269 269 277 276 281 193 160 149 130 179 187 188 247 286 299 296 314 12 42 217 184 154 156 162 165 165 170 180 182 182 178 171 163 155 150 150 150 148 145 147 155 159 162 171 177 181 184 188 190 187 183 170 161 167 174 171 166 163 164 167 172 172 174 183 186 186 186 186 187 188 188 187 188 187 179 178 181 174 173 183 184 176 176 182 182 173 164 157 151 151 149 144 143 145 145
270 287 305 312 294 284 303 196 161 120 105 198 165 103 318 310 306 302 313 330 256 225 209 170 161 167 169 167 175 179 170 155 161 164 160 152 143 140 142 144 144 145 156 166 169 174 180 185 185 186 187 184 178 172 170 175 182 178 169 161 158 160 173 178 175 180 182 184 188 188 188 188 187 185 187 187 177 173 180 179 182 184 178 176 178 178 179 174 169 165 154 151 155 151 151 153 151
262 281 291 297 290 308 321 228 162 109 131 194 115 86 305 290 290 298 307 298 270 236 212 178 165 171 173 174 177 169 155 153 160 161 152 143 134 133 138 145 154 159 168 175 175 175 180 184 184 183 182 178 177 176 173 178 178 176 173 162 159 160 172 181 179 178 178 181 186 187 188 186 183 183 188 193 181 172 189 191 184 182 177 180 183 177 179 179 175 175 165 156 155 151 154 162 163
240 239 263 273 280 308 313 293 239 190 162 155 124 125 258 268 284 289 275 267 277 271 251 204 171 177 181 182 179 168 162 164 165 163 151 137 130 135 144 153 163 169 173 175 175 174 177 179 180 184 183 179 178 175 176 178 168 170 174 163 164 166 165 171 174 177 180 183 185 184 187 185 182 182 187 197 191 181 194 196 186 184 182 185 189 180 178 180 176 176 170 164 163 154 152 163 173
283 141 204 281 293 288 283 295 304 331 354 109 126 65 311 254 254 275 269 265 280 267 263 273 216 190 186 183 180 172 168 167 166 162 153 142 138 147 156 161 168 174 173 172 171 170 173 177 181 189 185 178 174 173 183 179 158 161 170 159 160 172 163 159 161 167 176 185 187 183 185 186 183 184 188 195 195 188 192 194 190 191 189 187 190 184 179 180 180 179 171 169 175 167 159 160 164
349 331 212 243 282 289 291 306 330 11 333 282 138 5 307 269 235 256 275 282 284 281 271 261 254 258 194 184 189 182 171 170 166 160 156 150 148 153 158 166 174 175 170 169 171 172 174 176 179 184 181 177 173 169 179 176 158 158 164 155 156 166 162 159 160 165 173 184 190 185 185 187 184 185 190 194 192 189 192 196 193 194 193 190 192 191 186 182 180 181 177 174 178 178 173 165 159
342 261 236 225 245 267 279 290 306 358 264 266 128 162 272 305 278 257 263 262 272 334 342 287 270 26 29 52 188 188 169 160 147 135 128 128 145 155 165 178 179 171 164 168 172 173 174 173 172 174 173 175 176 170 169 168 165 169 165 156 163 173 170 169 173 176 178 185 191 187 187 188 185 184 189 193 191 190 195 197 190 191 195 195 195 191 187 186 181 181 184 183 180 178 180 174 168
216 238 253 245 228 236 249 255 261 236 242 303 22 110 258 306 284 274 273 272 348 45 38 15 36 47 39 34 36 149 164 142 120 108 97 105 154 177 189 191 179 165 166 169 168 169 171 170 166 166 166 171 177 174 169 169 172 176 172 164 169 190 187 175 175 180 178 181 186 186 185 184 185 185 186 190 193 192 194 193 188 191 198 196 191 184 183 186 184 183 184 185 183 178 181 180 173
221 221 241 255 236 234 244 236 261 299 316 326 333 30 4 279 271 290 287 326 23 33 56 52 45 43 37 30 30 63 127 119 111 118 123 140 170 191 206 207 179 168 170 167 164 164 167 167 163 161 162 167 176 180 177 178 180 179 176 169 169 191 196 179 176 181 178 178 182 183 183 181 182 186 188 190 190 191 190 189 187 190 194 188 186 185 184 186 188 189 185 180 182 177 179 183 175
218 219 240 269 275 269 264 126 58 8 31 292 282 136 189 273 296 328 334 42 27 360 37 59 59 51 42 30 30 50 80 95 110 133 147 163 175 188 202 201 181 174 168 162 165 161 160 164 162 160 163 170 180 187 185 183 186 184 177 173 173 183 189 180 180 182 179 180 181 182 183 182 182 184 188 187 185 186 186 186 187 187 186 183 183 183 182 185 187 186 180 175 177 176 176 183 181
217 215 232 274 293 304 13 64 61 40 2 252 269 254 194 276 325 1 24 30 26 21 24 38 55 55 44 32 36 55 71 84 114 137 147 152 158 174 187 173 158 164 151 141 155 154 153 158 164 167 171 177 185 191 192 189 189 186 178 176 178 180 181 179 178 178 180 183 183 182 181 180 180 181 181 179 179 179 176 176 180 179 178 180 183 180 178 182 180 176 174 172 175 177 176 180 184
213 185 152 23 335 5 23 7 36 48 270 262 282 287 253 243 299 323 14 27 34 47 37 29 43 50 44 33 39 54 60 65 71 65 51 53 70 81 83 84 113 143 127 97 103 113 117 141 165 180 181 181 188 193 196 195 191 186 182 180 180 181 182 181 179 178 182 185 184 182 180 178 178 176 174 173 173 173 170 170 174 176 175 178 182 179 178 179 176 173 173 172 174 178 177 175 177
122 67 66 92 323 355 24 337 357 222 252 237 232 262 262 199 200 330 14 29 32 42 41 36 39 41 38 33 38 47 45 45 44 35 30 28 37 51 59 80 113 121 109 97 104 114 122 147 170 187 190 187 192 196 197 196 192 187 186 184 182 181 182 184 183 180 182 184 182 180 179 176 172 169 169 170 170 170 170 170 172 174 174 174 171 170 174 179 178 175 172 173 176 178 179 176 172
143 159 133 132 167 100 219 242 224 227 238 222 197 165 162 154 27 354 24 34 32 44 43 41 42 40 39 36 39 45 36 31 37 36 27 18 16 21 27 40 68 84 92 98 110 131 148 162 173 187 196 194 193 195 196 197 195 192 191 189 185 180 181 185 184 181 181 182 181 180 177 173 171 171 172 172 171 169 169 169 169 170 171 170 165 165 170 174 175 173 170 173 178 180 180 177 173
183 187 157 152 168 164 203 214 192 218 254 283 252 101 144 167 246 310 41 46 39 49 45 42 40 37 41 38 36 41 32 23 33 36 29 17 6 8 16 21 35 63 81 88 108 149 161 167 176 187 196 197 194 195 196 197 197 195 195 194 189 182 180 183 183 182 182 181 180 179 175 172 172 172 172 172 173 172 169 168 168 169 170 169 167 170 172 171 169 167 168 172 176 179 179 174 174
222 183 158 179 190 174 208 219 189 165 79 344 13 49 19 156 204 332 50 41 37 46 41 38 33 30 40 37 28 29 19 13 25 29 23 17 7 4 8 15 40 80 106 132 171 183 176 174 181 187 195 199 199 198 197 199 200 197 198 198 193 184 179 179 180 180 183 184 182 179 175 173 170 168 168 167 167 168 167 166 168 167 165 166 169 173 174 172 172 169 168 172 174 178 181 178 178
259 196 189 208 199 178 203 259 243 111 93 275 171 102 4 93 15 9 41 36 32 35 29 29 28 30 38 36 25 16 9 10 20 26 15 7 8 360 355 6 42 149 183 187 193 199 188 181 185 188 195 201 202 201 199 201 201 199 199 199 199 191 182 179 180 179 181 182 181 180 177 173 170 170 172 170 166 165 164 164 166 164 161 164 168 167 167 167 170 168 165 169 173 176 180 180 184
214 254 223 203 196 190 164 239 309 82 108 260 148 128 124 95 323 346 32 35 29 26 18 18 23 29 33 31 28 17 13 14 14 27 25 9 4 352 342 343 317 255 226 188 180 204 202 200 203 196 195 203 208 208 206 204 203 201 199 199 203 198 187 183 181 178 179 179 177 177 176 171 170 171 172 172 168 164 165 165 163 159 157 159 161 164 171 166 161 163 163 166 170 172 177 180 186
194 233 259 115 160 218 212 181 228 126 151 270 97 106 81 78 265 342 36 38 34 31 22 18 22 29 29 23 23 21 25 25 18 24 24 10 8 2 345 337 327 287 268 300 86 122 192 228 322 153 173 222 229 221 212 211 211 205 199 200 204 201 191 186 182 178 180 178 175 175 172 168 168 169 166 165 164 164 168 170 166 160 156 159 161 164 169 163 155 160 165 167 171 174 176 176 184
209 257 309 89 154 184 211 205 195 144 157 209 93 79 347 312 346 17 44 49 49 48 37 30 29 32 32 23 18 18 28 33 28 28 24 12 10 8 1 354 354 4 360 350 27 107 222 307 24 84 126 212 228 220 216 219 221 215 203 201 202 199 195 190 185 183 179 176 177 175 169 165 163 162 160 160 162 164 165 166 164 160 157 158 159 154 153 154 153 156 159 162 169 175 179 178 183
218 241 245 274 265 192 199 222 191 143 154 179 124 90 294 303 12 29 40 38 46 61 59 53 42 34 30 22 18 22 31 35 33 35 31 18 10 6 6 8 11 17 18 17 29 55 237 291 236 186 194 197 182 191 210 216 221 221 214 206 201 197 194 191 189 186 179 174 175 170 162 161 159 158 160 161 162 163 161 159 158 157 155 153 155 154 150 151 153 151 151 154 158 167 176 176 177
68 31 233 306 351 165 193 280 255 156 147 163 137 134 276 317 1 38 46 35 36 55 65 66 54 41 30 18 21 29 34 35 32 33 35 24 12 5 4 10 16 16 16 16 12 7 9 330 225 223 224 213 187 192 206 209 211 216 217 212 205 196 192 192 188 183 178 174 168 161 156 156 156 157 160 160 163 165 162 160 157 154 153 150 150 151 147 149 154 155 159 160 160 165 171 173 172